Location: *
(46.1200°N, 11.2700°E)
Time: 12:34:19
(UTC+00:00)

CZ-4 R/B - Pass Details

Date: 02 March 2021
Orbit: 532 x 597 km, 97.7° (Epoch: 17 April)

Event Time Altitude Azimuth Distance (km) Brightness Sun altitude
Rises 18:01:34 0° 174° (S) 2,664 4.7 -11.0°
Reaches altitude 10° 18:03:41 10° 178° (S) 1,782 3.9 -11.3°
Maximum altitude 18:07:29 60° 259° (W) 619 1.9 -12.0°
Drops below altitude 10° 18:11:21 10° 340° (NNW) 1,818 4.3 -12.7°
Sets 18:13:32 0° 344° (NNW) 2,724 5.1 -13.0°
